Retour au catalogue

PRAETORIAN SDA_609

ActifMilitairePO
NORAD 65572·PAYLOAD·🇺🇸 United States

Lancé Sep 10, 2025 depuis Vandenberg Space Force Base

Loading…

Prochains Passages (prochaines 24 heures)

TLE

FraisSource: Space-Track

Époque: Sep 14, 2026, 01:27 UTC

1 65572U 25203H   26257.06081915  .00000278  00000-0  23903-3 0  9996
2 65572  81.3020 288.5050 0005969 318.9627  41.1079 13.84216121 50998

Suivez PRAETORIAN SDA_609 en temps réel avec AllMySat

Download on the App Store